RH
19 17 18 22 23 25 25 26 30 36 44 55 57 62 63 71 72 74 77 80 83 78 77 79 76 71 70 67 62 56 50 46 39 39 32 32 30 30 27 23 19 17 19 20 21 22 21 22 22
19 18 20 23 24 24 24 27 28 35 46 51 57 64 68 75 77 79 81 88 86 83 81 83 78 76 76 73 67 59 51 44 41 40 39 37 32 33 24 24 21 18 20 21 22 22 22 23 25
20 20 21 23 26 25 25 27 31 43 47 48 58 70 70 89 81 77 79 86 85 84 81 84 81 82 81 80 72 58 49 44 38 44 42 35 36 34 28 30 27 22 20 21 23 24 25 27 28
19 21 22 24 27 26 26 30 45 47 52 60 63 71 76 75 76 73 73 78 82 82 83 82 82 83 83 80 73 58 50 43 44 39 39 37 35 36 38 36 33 25 23 25 27 31 31 31 32
20 20 24 27 29 29 29 38 55 53 54 63 69 77 77 76 71 70 72 77 81 84 86 85 86 88 86 79 74 64 50 46 47 42 44 40 40 38 34 34 30 27 26 29 31 33 34 36 39
22 22 25 30 32 31 38 46 58 59 60 65 69 68 76 75 75 77 74 75 80 94 96 92 91 91 88 80 71 62 53 53 49 46 46 47 46 42 41 40 37 34 33 33 35 38 41 42 43
23 23 26 34 35 33 44 58 59 64 62 65 67 66 78 78 81 79 78 78 84 87 93 97 95 93 87 80 64 58 57 53 50 48 50 47 43 42 40 36 34 33 35 40 43 44 48 48 47
24 26 32 36 33 37 52 58 64 62 66 66 69 70 76 78 80 78 77 78 81 84 90 95 95 95 86 82 67 63 60 54 54 54 48 53 52 45 40 40 37 38 40 42 45 50 52 52 50
26 28 40 37 35 43 48 52 59 63 64 68 70 70 69 84 85 79 75 73 76 76 78 84 95 90 88 83 67 64 60 60 58 55 50 44 43 42 41 36 36 39 42 49 54 53 54 57 51
29 32 40 38 38 42 45 49 57 62 66 66 71 73 77 79 78 71 68 74 81 81 81 89 89 90 91 83 83 66 69 69 56 47 46 48 45 41 41 40 41 46 50 55 57 58 60 56 48
30 36 40 40 41 44 46 53 58 61 63 63 67 70 71 72 68 68 67 70 80 86 84 87 95 92 91 84 79 85 74 54 51 51 46 44 42 44 47 49 52 58 59 62 63 61 63 56 41
33 37 39 43 46 48 52 56 58 60 58 64 68 68 64 66 63 60 72 76 84 87 91 91 88 87 89 91 89 77 64 57 47 43 42 47 50 52 52 55 62 63 66 66 63 59 60 48 37
33 43 42 44 46 54 57 55 58 60 60 71 72 69 64 67 64 55 66 76 87 90 91 88 89 91 91 85 73 59 48 43 45 48 50 47 51 56 62 66 68 67 65 64 60 57 55 43 39
40 47 45 43 48 57 58 59 56 56 64 68 77 73 72 73 71 57 58 64 71 76 78 76 79 78 70 62 54 52 48 41 38 45 53 61 69 69 66 71 68 63 60 58 57 58 47 43 40
44 50 52 53 59 55 54 55 53 56 60 70 81 79 83 80 71 57 61 57 56 62 60 57 55 52 43 38 38 41 43 47 56 65 74 77 71 66 68 70 66 59 57 54 55 55 46 44 40
47 47 54 57 63 58 56 53 57 64 58 63 69 73 80 70 64 50 56 59 55 51 55 55 51 45 39 38 43 52 56 63 67 69 78 78 74 77 76 67 60 55 54 53 55 51 46 42 41
44 45 46 57 61 61 58 53 57 62 54 54 65 68 69 65 60 49 51 51 55 55 54 52 53 53 51 49 46 51 52 54 62 68 77 70 68 67 59 58 53 53 53 54 53 47 43 42 39
42 43 45 54 58 61 58 51 54 57 60 52 56 55 58 53 46 44 47 49 54 58 58 56 56 60 59 54 51 49 53 58 63 73 73 61 56 54 51 55 54 53 54 53 49 42 42 42 41
43 42 47 51 53 50 50 51 50 57 60 59 49 43 45 47 48 48 52 55 53 55 55 53 52 50 51 49 51 54 55 59 68 84 79 67 58 54 52 54 53 52 53 50 46 43 45 46 52
45 43 47 50 50 49 48 47 44 48 52 53 54 49 43 45 49 48 49 50 50 49 48 49 51 54 53 55 55 59 61 64 73 89 74 79 70 62 57 56 53 53 52 51 49 53 53 58 61
43 42 43 49 49 51 47 43 41 44 47 47 48 50 47 46 45 45 46 47 48 47 46 47 47 50 58 61 61 63 65 67 75 77 83 82 77 70 65 64 61 59 57 54 60 62 63 70 72
41 40 42 50 51 47 47 46 44 41 42 41 45 43 42 41 41 41 41 43 45 45 48 48 47 48 57 62 61 64 64 65 72 79 85 90 84 73 73 74 68 65 64 64 70 71 75 80 84
43 44 42 44 49 50 49 44 38 41 38 38 36 46 50 43 43 45 47 48 49 50 51 51 54 57 58 62 66 66 63 63 72 87 90 84 85 82 82 75 69 73 71 71 79 82 87 91 93
50 48 47 50 51 53 48 45 41 41 38 37 31 41 49 53 51 47 50 54 55 55 55 57 56 64 67 68 72 74 62 57 64 73 84 87 87 86 82 77 79 80 78 80 88 94 96 91 88
51 53 55 55 56 53 51 51 44 40 40 37 36 35 38 45 53 52 53 53 57 61 63 62 63 66 68 70 78 76 71 65 65 73 91 91 90 90 87 86 87 87 90 94 93 91 88 91 88
51 53 59 56 55 48 50 48 35 32 37 42 39 39 37 40 46 48 49 54 57 64 65 61 68 72 68 69 77 77 74 67 67 78 95 95 94 94 92 91 91 93 93 88 87 90 91 87 83
52 55 53 60 65 61 47 40 36 35 38 38 38 41 40 34 28 35 41 44 51 57 56 62 63 67 70 67 62 59 56 63 75 83 94 92 95 96 95 94 93 93 93 95 91 94 91 83 78
52 55 60 61 60 57 45 42 37 36 35 34 35 34 37 37 29 24 26 33 40 47 49 49 51 53 54 51 50 51 62 74 77 87 93 92 95 97 97 92 96 99 96 97 95 91 85 89 90
59 58 61 58 56 52 53 44 38 36 35 35 38 39 33 28 26 22 24 27 28 31 33 36 39 41 41 45 54 71 76 78 81 89 90 93 97 95 95 97 96 95 91 98 93 94 95 89 83
51 53 56 62 55 57 55 45 37 35 34 37 36 36 35 33 35 32 26 22 25 25 29 31 34 39 46 59 68 71 77 83 86 90 91 93 94 95 97 95 98 94 95 89 92 97 90 81 79